Weather History for Pompano Beach, FL

Change the Weather History Date:

Saturday, May 4, 2013

  Actual Average Record
Temperature  
Mean Temperature 77 °F -  
Max Temperature 88 °F 85 °F 92 °F (1951)
Min Temperature 68 °F 69 °F 56 °F (1971)
Cooling Degree Days 12    
Growing Degree Days 27 (Base 50)    
Moisture  
Dew Point 67 °F    
Average Humidity 74    
Maximum Humidity 100    
Minimum Humidity 46    
Precipitation  
Precipitation 0.01 in - - ()
Sea Level Pressure  
Sea Level Pressure 29.75 in    
Wind  
Wind Speed 8 mph (WNW)    
Max Wind Speed 14 mph    
Max Gust Speed 22 mph    
Visibility 10 miles    
Events      
Averages and records for this station are not official NWS values.
T = Trace of Precipitation, MM = Missing Value Source: NWS Daily Summary

Daily Weather History Graph

Daily Weather History Graph

Search for Another Location

Airport:

Trip Planner

Search our weather history database for the weather conditions in past years. The results will help you decide how hot, cold, wet, or windy it might be!

Date:

Astronomy

May. 04, 2013 Rise Set
Actual Time 6:40 AM EDT 7:54 PM EDT
Civil Twilight 6:16 AM EDT 8:18 PM EDT
Nautical Twilight 5:47 AM EDT 8:47 PM EDT
Astronomical Twilight 5:17 AM EDT 9:17 PM EDT
Moon 3:07 AM EDT (5/4) 3:17 PM EDT (5/4)
Length of Visible Light 14h 02m
Length of Day
13h 13m
Waning Crescent, 27% of the Moon is Illuminated
May 4
Waning Crescent
May 9
New
May 18
First Quarter
May 25
Full
May 31
Last Quarter

Hourly Weather History & Observations

Time (EDT) Temp. Heat Index Dew Point Humidity Pressure Visibility Wind Dir Wind Speed Gust Speed Precip Events Conditions
12:53 AM 71.1 °F - 71.1 °F 100% 29.75 in 10.0 mi West 3.5 mph - N/A   Clear
1:53 AM 70.0 °F - 70.0 °F 100% 29.73 in 10.0 mi WNW 5.8 mph - N/A   Clear
2:53 AM 70.0 °F - 70.0 °F 100% 29.70 in 10.0 mi West 4.6 mph - N/A   Clear
3:53 AM 70.0 °F - 70.0 °F 100% 29.71 in 10.0 mi West 6.9 mph - N/A   Clear
4:53 AM 70.0 °F - 70.0 °F 100% 29.71 in 10.0 mi WNW 6.9 mph - N/A   Clear
5:53 AM 69.1 °F - 69.1 °F 100% 29.72 in 10.0 mi WNW 4.6 mph - N/A   Clear
6:53 AM 68.0 °F - 68.0 °F 100% 29.75 in 9.0 mi West 5.8 mph - N/A   Clear
7:53 AM 70.0 °F - 70.0 °F 100% 29.76 in 10.0 mi West 4.6 mph - N/A   Clear
8:53 AM 73.0 °F - 70.0 °F 90% 29.76 in 10.0 mi West 10.4 mph - N/A   Clear
9:53 AM 77.0 °F - 68.0 °F 74% 29.77 in 10.0 mi West 12.7 mph - 0.01 in   Scattered Clouds
10:53 AM 79.0 °F - 66.9 °F 66% 29.78 in 10.0 mi WNW 11.5 mph - N/A   Scattered Clouds
11:53 AM 82.0 °F 84.5 °F 66.9 °F 60% 29.78 in 10.0 mi WNW 12.7 mph 18.4 mph N/A   Scattered Clouds
12:53 PM 82.9 °F 85.0 °F 66.0 °F 56% 29.76 in 10.0 mi WNW 12.7 mph - N/A   Mostly Cloudy
1:53 PM 82.9 °F 85.0 °F 66.0 °F 56% 29.75 in 10.0 mi NNW 10.4 mph - N/A   Scattered Clouds
2:53 PM 84.9 °F 86.6 °F 64.9 °F 51% 29.72 in 10.0 mi WNW 10.4 mph - N/A   Mostly Cloudy
3:53 PM 86.0 °F 86.8 °F 63.0 °F 46% 29.70 in 10.0 mi West 11.5 mph 18.4 mph N/A   Scattered Clouds
4:53 PM 86.0 °F 87.3 °F 64.0 °F 48% 29.71 in 10.0 mi WNW 12.7 mph - N/A   Scattered Clouds
5:53 PM 84.9 °F 86.1 °F 64.0 °F 49% 29.72 in 10.0 mi WNW 13.8 mph 21.9 mph N/A   Mostly Cloudy
6:53 PM 84.0 °F 85.4 °F 64.0 °F 51% 29.73 in 10.0 mi NW 13.8 mph 21.9 mph N/A   Scattered Clouds
7:53 PM 81.0 °F 82.2 °F 63.0 °F 54% 29.75 in 10.0 mi WNW 10.4 mph - N/A   Clear
8:53 PM 78.1 °F - 64.0 °F 62% 29.77 in 10.0 mi West 5.8 mph - N/A   Clear
9:53 PM 75.9 °F - 64.0 °F 67% 29.79 in 10.0 mi West 13.8 mph - N/A   Clear
10:53 PM 73.9 °F - 64.9 °F 73% 29.81 in 10.0 mi West 10.4 mph - N/A   Clear
11:53 PM 73.0 °F - 64.9 °F 76% 29.82 in 10.0 mi West 12.7 mph - N/A   Clear